Location: Saint Louis
(38.6272°N, 90.1978°W)
Time: 05:30:06
(UTC-05:00)

ISS - Pass Details

Date: 24 December 2012
Orbit: 401 x 404 km, 51.6° (Epoch: 28 July)

Event Time Altitude Azimuth Distance (km) Brightness Sun altitude
Rises 17:45:42 0° 315° (NW) 2,391 0.9 -11.6°
Reaches altitude 10° 17:49:26 10° 357° (N) 1,523 -0.6 -12.2°
Maximum altitude 17:50:13 11° 10° (N) 1,487 -0.8 -12.4°
Enters shadow 17:50:47 10° 20° (NNE) 1,506 -0.8 -12.5°
